COSMOS 2251 DEB, 34420

Orbit data source: Space-Track

COSMOS 2251 DEB, 34420 is space debris in LEO originally from a launch on Wed, 16 Jun 1993 UTC launched from the Plesetsk Missile And Space Complex (PKMTR). The debris from Iridium 33, an American commercial communications satellite, has been tracked extensively since its accidental collision with the defunct Russian satellite Cosmos 2251 in 2009. This event, occurring at high speed in low Earth orbit (LEO), generated thousands of pieces of space debris, significantly increasing the risk of further collisions. The Iridium 33 debris cloud has impacted space traffic management and orbital debris mitigation strategies, making it a subject of ongoing study in space situational awareness.

Loading next visibility...
Identifier
34420, 1993-036RM
Orbit
LEO
Country
Flag of CISCIS
Related business
Manufacturer
Unknown
Mission
Spacecraft
Bus & Motor
Unknown
Mass
Unknown
Launch date (UTC)
1993-06-16 (33 years ago)
Launch vehicle
Unknown
Launch site
Plesetsk Missile And Space Complex (PKMTR)
Object type
Payload
Rocket body
Debris
Shape & HBR
Unknown shape, 0.1 m
Radar Cross Section
Small (<0.1 m²)

Expand to show TLE details & history
Last TLE update: 16 hours ago

TLE from 16 hours ago
0 COSMOS 2251 DEB
1 34420U 93036RM  26037.00091951  .00001345  00000-0  21941-3 0  9990
2 34420  74.0343 357.0515 0104093 103.7866 328.5078 14.68451947905815
Epoch: 2026-02-06T00:01Z
TLE epoch observation values (Epoch: 2026-02-06T00:01:19.445Z)
Latitude
65.96874°
Longitude
-99.77062°
Altitude
614.731 km
Speed
7.592 km/s
True Right ascension
02h 26m 49s
True Declination
65° 50' 17"
Sunlit
Object was in daylight at epoch
Visualization orbit readout
Latitude
Unknown
Longitude
Unknown
Altitude
Unknown
Speed
Unknown
Apparent Right ascension
Unknown
Apparent Declination
Unknown
Sunlit
N/A
Visualization observer readout
Local Sidereal Time
18:00:12
Azimuth
Unknown
Elevation
Unknown
Doppler factor
Unknown
Orbital elements
Apogee altitude
736.902 km
Perigee altitude
590.303 km
Semi-major axis
7,041.739 km
Eccentricity
0.01041
Inclination
74.0343°
RAAN
357.0515°
Arg. of periapsis
103.7866°
True anomaly
327.87772°
Mean anomaly
328.5078°
Eccentric anomaly
328.19346°
Mean motion
3.67302 °/min
Orbital period
98.01 mins
BSTAR
0.00021941
Loading maneuver chart data...
Computing Atmospheric mass density...

Documentation

Showing up to 5 results
|